When you browse on this site, cookies collect data to enhance your experience and personalize the content and advertising you see.
Visit our Privacy Policy to learn more. By continuing to use the site, you agree to this use of cookies and data.
  • In Hungary
  • List of Countries
  • For 7 days
  • Water Temperature
  • Satellite Maps
  • Weather Map
  • News
  • Weather Widgets
  • user-avatar
    Login

    Hourly Weather Kyrdzhali

    Today, 21 April, Sunday

    Time Temperature Precipitation Wind Pressure Humidity
    00:00 +4°C° 0 mm 2 mps 734 mmHg 71%
    01:00 +4°C° 0 mm 2 mps 734 mmHg 71%
    02:00 +4°C° 0 mm 2 mps 733 mmHg 67%
    03:00 +4°C° 0 mm 2 mps 733 mmHg 67%
    04:00 +3°C° 0 mm 2 mps 733 mmHg 66%
    05:00 +3°C° 0 mm 2 mps 733 mmHg 66%
    06:00 +5°C° 0 mm 2 mps 733 mmHg 61%
    07:00 +7°C° 0 mm 2 mps 733 mmHg 56%
    08:00 +9°C° 0 mm 2 mps 733 mmHg 50%
    09:00 +10°C° 0 mm 2 mps 733 mmHg 47%
    10:00 +12°C° 0 mm 2 mps 733 mmHg 45%
    11:00 +13°C° 0 mm 2 mps 733 mmHg 42%
    12:00 +14°C° 0 mm 2 mps 732 mmHg 41%
    13:00 +15°C° 0 mm 2 mps 732 mmHg 40%
    14:00 +15°C° 0 mm 2 mps 732 mmHg 40%
    15:00 +15°C° 0 mm 2 mps 732 mmHg 42%
    16:00 +15°C° 0 mm 2 mps 731 mmHg 44%
    17:00 +15°C° 0 mm 2 mps 731 mmHg 47%
    18:00 +13°C° 0 mm 2 mps 731 mmHg 55%
    19:00 +10°C° 0 mm 2 mps 731 mmHg 64%
    20:00 +8°C° 0 mm 2 mps 730 mmHg 73%
    21:00 +8°C° 0 mm 2 mps 731 mmHg 76%
    22:00 +7°C° 0 mm 2 mps 731 mmHg 79%
    23:00 +7°C° 0 mm 2 mps 731 mmHg 82%

    Tomorrow, 22 April, Monday

    Time Temperature Precipitation Wind Pressure Humidity
    00:00 +6°C° 0 mm 2 mps 731 mmHg 83%
    01:00 +7°C° 0 mm 1 mps 731 mmHg 83%
    02:00 +7°C° 0 mm 1 mps 730 mmHg 84%
    03:00 +7°C° 0 mm 1 mps 730 mmHg 83%
    04:00 +6°C° 0 mm 1 mps 730 mmHg 83%
    05:00 +6°C° 0 mm 1 mps 730 mmHg 83%
    06:00 +8°C° 0 mm 1 mps 730 mmHg 78%
    07:00 +10°C° 0 mm 1 mps 730 mmHg 72%
    08:00 +12°C° 0 mm 1 mps 730 mmHg 67%
    09:00 +13°C° 0 mm 2 mps 730 mmHg 63%
    10:00 +15°C° 0 mm 2 mps 730 mmHg 60%
    11:00 +16°C° 0 mm 3 mps 730 mmHg 57%
    12:00 +17°C° 0.1 mm 4 mps 730 mmHg 56%
    13:00 +17°C° 0.1 mm 4 mps 730 mmHg 56%
    14:00 +17°C° 0.1 mm 4 mps 730 mmHg 56%
    15:00 +16°C° 0.1 mm 5 mps 729 mmHg 58%
    16:00 +15°C° 0.1 mm 5 mps 729 mmHg 60%
    17:00 +15°C° 0.1 mm 5 mps 729 mmHg 63%
    18:00 +13°C° 0 mm 4 mps 729 mmHg 70%
    19:00 +11°C° 0 mm 3 mps 729 mmHg 77%
    20:00 +9°C° 0 mm 3 mps 729 mmHg 84%
    21:00 +8°C° 0 mm 3 mps 729 mmHg 84%
    22:00 +8°C° 0 mm 3 mps 730 mmHg 85%
    23:00 +7°C° 0 mm 3 mps 730 mmHg 85%

    Day after tomorrow, 23 April, Tuesday

    Time Temperature Precipitation Wind Pressure Humidity
    00:00 +7°C° 0 mm 2 mps 730 mmHg 82%
    01:00 +7°C° 0 mm 2 mps 730 mmHg 79%
    02:00 +7°C° 0 mm 2 mps 730 mmHg 77%
    03:00 +7°C° 0.3 mm 2 mps 730 mmHg 78%
    04:00 +7°C° 0.3 mm 2 mps 730 mmHg 79%
    05:00 +8°C° 0.3 mm 1 mps 730 mmHg 80%
    06:00 +8°C° 0.3 mm 2 mps 731 mmHg 78%
    07:00 +8°C° 0.3 mm 2 mps 731 mmHg 77%
    08:00 +9°C° 0.3 mm 2 mps 731 mmHg 75%
    09:00 +12°C° 0.1 mm 2 mps 731 mmHg 70%
    10:00 +12°C° 0.1 mm 3 mps 731 mmHg 64%
    11:00 +14°C° 0.1 mm 3 mps 732 mmHg 59%
    12:00 +15°C° 0 mm 4 mps 731 mmHg 56%
    13:00 +16°C° 0 mm 5 mps 731 mmHg 53%
    14:00 +17°C° 0 mm 6 mps 731 mmHg 50%
    15:00 +17°C° 0 mm 6 mps 731 mmHg 52%
    16:00 +16°C° 0 mm 5 mps 731 mmHg 53%
    17:00 +16°C° 0 mm 5 mps 730 mmHg 55%
    18:00 +14°C° 0 mm 4 mps 730 mmHg 58%
    19:00 +13°C° 0 mm 4 mps 730 mmHg 61%
    20:00 +11°C° 0 mm 3 mps 730 mmHg 64%
    21:00 +11°C° 0 mm 3 mps 731 mmHg 65%
    22:00 +10°C° 0 mm 3 mps 731 mmHg 65%
    23:00 +9°C° 0 mm 2 mps 731 mmHg 66%

    24 April, Wednesday

    Time Temperature Precipitation Wind Pressure Humidity
    00:00 +9°C° 0 mm 2 mps 731 mmHg 66%
    01:00 +9°C° 0 mm 2 mps 731 mmHg 67%
    02:00 +9°C° 0 mm 2 mps 731 mmHg 67%
    03:00 +9°C° 0 mm 2 mps 731 mmHg 68%
    04:00 +9°C° 0 mm 1 mps 731 mmHg 69%
    05:00 +9°C° 0 mm 1 mps 731 mmHg 70%
    06:00 +11°C° 0 mm 1 mps 732 mmHg 68%
    07:00 +12°C° 0 mm 1 mps 732 mmHg 65%
    08:00 +13°C° 0 mm 0 mps 732 mmHg 63%
    09:00 +16°C° 0 mm 1 mps 733 mmHg 59%
    10:00 +19°C° 0 mm 1 mps 733 mmHg 56%
    11:00 +19°C° 0 mm 2 mps 733 mmHg 53%
    12:00 +20°C° 0 mm 2 mps 733 mmHg 53%
    13:00 +21°C° 0 mm 2 mps 733 mmHg 53%
    14:00 +22°C° 0 mm 3 mps 733 mmHg 52%
    15:00 +22°C° 0 mm 3 mps 733 mmHg 55%
    16:00 +22°C° 0 mm 3 mps 733 mmHg 57%
    17:00 +21°C° 0 mm 3 mps 732 mmHg 60%
    18:00 +19°C° 0 mm 3 mps 732 mmHg 69%
    19:00 +17°C° 0 mm 2 mps 732 mmHg 77%
    20:00 +15°C° 0 mm 2 mps 732 mmHg 86%
    21:00 +14°C° 0 mm 2 mps 732 mmHg 84%
    22:00 +14°C° 0 mm 1 mps 733 mmHg 83%
    23:00 +13°C° 0 mm 1 mps 733 mmHg 81%

    25 April, Thursday

    Time Temperature Precipitation Wind Pressure Humidity
    00:00 +13°C° 0 mm 1 mps 733 mmHg 80%
    01:00 +12°C° 0 mm 1 mps 732 mmHg 78%
    02:00 +12°C° 0 mm 1 mps 732 mmHg 76%
    03:00 +11°C° 0 mm 1 mps 732 mmHg 78%
    04:00 +11°C° 0 mm 1 mps 732 mmHg 80%
    05:00 +11°C° 0 mm 1 mps 732 mmHg 81%
    06:00 +12°C° 0 mm 1 mps 732 mmHg 77%
    07:00 +13°C° 0 mm 1 mps 733 mmHg 74%
    08:00 +15°C° 0 mm 1 mps 733 mmHg 70%
    09:00 +18°C° 0 mm 1 mps 733 mmHg 65%
    10:00 +18°C° 0 mm 2 mps 734 mmHg 60%
    11:00 +20°C° 0 mm 2 mps 734 mmHg 55%
    12:00 +21°C° 0 mm 2 mps 733 mmHg 54%
    13:00 +23°C° 0 mm 2 mps 733 mmHg 52%
    14:00 +24°C° 0 mm 2 mps 733 mmHg 51%
    15:00 +24°C° 0 mm 2 mps 733 mmHg 53%
    16:00 +23°C° 0 mm 2 mps 732 mmHg 55%
    17:00 +23°C° 0 mm 2 mps 732 mmHg 58%
    18:00 +20°C° 0.5 mm 2 mps 732 mmHg 65%
    19:00 +20°C° 0.5 mm 1 mps 732 mmHg 73%
    20:00 +18°C° 0.5 mm 1 mps 732 mmHg 80%
    21:00 +16°C° 0.1 mm 1 mps 732 mmHg 82%
    22:00 +16°C° 0.1 mm 1 mps 732 mmHg 84%
    23:00 +15°C° 0.1 mm 1 mps 732 mmHg 86%

    26 April, Friday

    Time Temperature Precipitation Wind Pressure Humidity
    00:00 +15°C° 0 mm 1 mps 731 mmHg 87%
    01:00 +14°C° 0 mm 1 mps 731 mmHg 88%
    02:00 +13°C° 0 mm 1 mps 731 mmHg 89%
    03:00 +12°C° 0 mm 0 mps 731 mmHg 89%
    04:00 +12°C° 0 mm 0 mps 731 mmHg 88%
    05:00 +11°C° 0 mm 0 mps 731 mmHg 88%
    06:00 +12°C° 0.1 mm 0 mps 731 mmHg 84%
    07:00 +14°C° 0.1 mm 1 mps 731 mmHg 81%
    08:00 +15°C° 0.1 mm 1 mps 731 mmHg 77%
    09:00 +18°C° 0 mm 1 mps 731 mmHg 72%
    10:00 +19°C° 0 mm 1 mps 731 mmHg 66%
    11:00 +20°C° 0 mm 2 mps 731 mmHg 60%
    12:00 +21°C° 0.1 mm 2 mps 730 mmHg 59%
    13:00 +21°C° 0.1 mm 2 mps 730 mmHg 58%
    14:00 +23°C° 0.1 mm 2 mps 730 mmHg 56%
    15:00 +21°C° 0.2 mm 2 mps 729 mmHg 59%
    16:00 +21°C° 0.2 mm 2 mps 729 mmHg 61%
    17:00 +20°C° 0.2 mm 2 mps 728 mmHg 64%
    18:00 +20°C° 0.2 mm 1 mps 728 mmHg 69%
    19:00 +19°C° 0.2 mm 1 mps 728 mmHg 74%
    20:00 +16°C° 0.2 mm 1 mps 728 mmHg 78%
    21:00 +15°C° 0.2 mm 0 mps 728 mmHg 80%
    22:00 +14°C° 0.2 mm 0 mps 728 mmHg 81%
    23:00 +14°C° 0.2 mm 0 mps 728 mmHg 83%
    Show more